• In Österreich
  • Länderverzeichnis
  • Für 7 Tage
  • Wassertemperatur
  • Satellitenkarten
  • Wetterkarte
  • News
  • Widgets
  • user-avatar
    Anmelden

    Stündliche Wetter Chyzhivka

    Heute, 17 Oktober, Mittwoch

    Zeit Temperatur Niederschläge Wind Luftdruck Luftfeuchtigkeit
    00:00 +13°C° 0 mm 2 m/S 743 mmHg 67%
    01:00 +12°C° 0 mm 2 m/S 743 mmHg 68%
    02:00 +12°C° 0 mm 2 m/S 743 mmHg 70%
    03:00 +12°C° 0 mm 2 m/S 743 mmHg 71%
    04:00 +12°C° 0 mm 2 m/S 743 mmHg 72%
    05:00 +12°C° 0 mm 2 m/S 743 mmHg 73%
    06:00 +12°C° 0 mm 2 m/S 743 mmHg 73%
    07:00 +13°C° 0 mm 2 m/S 743 mmHg 72%
    08:00 +13°C° 0 mm 2 m/S 744 mmHg 69%
    09:00 +16°C° 0 mm 2 m/S 744 mmHg 63%
    10:00 +18°C° 0 mm 3 m/S 744 mmHg 57%
    11:00 +20°C° 0 mm 3 m/S 744 mmHg 51%
    12:00 +21°C° 0 mm 3 m/S 743 mmHg 49%
    13:00 +21°C° 0 mm 3 m/S 743 mmHg 47%
    14:00 +22°C° 0 mm 3 m/S 743 mmHg 45%
    15:00 +21°C° 0 mm 3 m/S 743 mmHg 50%
    16:00 +20°C° 0 mm 2 m/S 742 mmHg 56%
    17:00 +18°C° 0 mm 2 m/S 742 mmHg 61%
    18:00 +17°C° 0 mm 2 m/S 742 mmHg 64%
    19:00 +16°C° 0 mm 2 m/S 742 mmHg 67%
    20:00 +15°C° 0 mm 2 m/S 742 mmHg 69%
    21:00 +15°C° 0 mm 2 m/S 742 mmHg 70%
    22:00 +14°C° 0 mm 2 m/S 742 mmHg 71%
    23:00 +14°C° 0 mm 2 m/S 742 mmHg 72%

    Morgen, 18 Oktober, Donnerstag

    Zeit Temperatur Niederschläge Wind Luftdruck Luftfeuchtigkeit
    00:00 +13°C° 0 mm 2 m/S 742 mmHg 73%
    01:00 +13°C° 0 mm 2 m/S 742 mmHg 73%
    02:00 +12°C° 0 mm 2 m/S 742 mmHg 74%
    03:00 +12°C° 0 mm 2 m/S 741 mmHg 75%
    04:00 +12°C° 0 mm 2 m/S 741 mmHg 76%
    05:00 +10°C° 0 mm 2 m/S 741 mmHg 76%
    06:00 +12°C° 0 mm 2 m/S 741 mmHg 76%
    07:00 +12°C° 0 mm 2 m/S 741 mmHg 75%
    08:00 +12°C° 0 mm 2 m/S 741 mmHg 74%
    09:00 +13°C° 0 mm 3 m/S 741 mmHg 67%
    10:00 +16°C° 0 mm 3 m/S 741 mmHg 61%
    11:00 +19°C° 0 mm 3 m/S 740 mmHg 54%
    12:00 +19°C° 0 mm 3 m/S 740 mmHg 51%
    13:00 +20°C° 0 mm 3 m/S 740 mmHg 49%
    14:00 +21°C° 0 mm 3 m/S 740 mmHg 47%
    15:00 +20°C° 0 mm 3 m/S 739 mmHg 51%
    16:00 +18°C° 0 mm 2 m/S 739 mmHg 55%
    17:00 +17°C° 0 mm 2 m/S 738 mmHg 60%
    18:00 +16°C° 0 mm 2 m/S 739 mmHg 61%
    19:00 +15°C° 0 mm 2 m/S 739 mmHg 62%
    20:00 +14°C° 0 mm 2 m/S 739 mmHg 64%
    21:00 +14°C° 0 mm 2 m/S 739 mmHg 64%
    22:00 +13°C° 0 mm 2 m/S 739 mmHg 64%
    23:00 +13°C° 0 mm 1 m/S 738 mmHg 64%

    übermorgen, 19 Oktober, Freitag

    Zeit Temperatur Niederschläge Wind Luftdruck Luftfeuchtigkeit
    00:00 +13°C° 0 mm 1 m/S 738 mmHg 65%
    01:00 +12°C° 0 mm 1 m/S 738 mmHg 65%
    02:00 +12°C° 0 mm 1 m/S 738 mmHg 66%
    03:00 +12°C° 0 mm 1 m/S 738 mmHg 67%
    04:00 +11°C° 0 mm 1 m/S 738 mmHg 68%
    05:00 +11°C° 0 mm 1 m/S 738 mmHg 70%
    06:00 +12°C° 0 mm 1 m/S 738 mmHg 70%
    07:00 +12°C° 0 mm 1 m/S 738 mmHg 70%
    08:00 +12°C° 0 mm 1 m/S 738 mmHg 70%
    09:00 +14°C° 0 mm 1 m/S 738 mmHg 65%
    10:00 +15°C° 0 mm 1 m/S 738 mmHg 60%
    11:00 +18°C° 0 mm 1 m/S 738 mmHg 56%
    12:00 +19°C° 0 mm 1 m/S 738 mmHg 54%
    13:00 +19°C° 0 mm 1 m/S 738 mmHg 52%
    14:00 +20°C° 0 mm 1 m/S 738 mmHg 50%
    15:00 +19°C° 0 mm 1 m/S 738 mmHg 54%
    16:00 +18°C° 0 mm 1 m/S 738 mmHg 59%
    17:00 +16°C° 0 mm 2 m/S 738 mmHg 64%
    18:00 +15°C° 0 mm 2 m/S 738 mmHg 67%
    19:00 +14°C° 0 mm 2 m/S 738 mmHg 70%
    20:00 +14°C° 0 mm 2 m/S 739 mmHg 74%
    21:00 +13°C° 0 mm 2 m/S 739 mmHg 76%
    22:00 +13°C° 0 mm 2 m/S 739 mmHg 78%
    23:00 +12°C° 0 mm 2 m/S 739 mmHg 79%

    20 Oktober, Samstag

    Zeit Temperatur Niederschläge Wind Luftdruck Luftfeuchtigkeit
    00:00 +12°C° 0 mm 2 m/S 739 mmHg 82%
    01:00 +10°C° 0 mm 2 m/S 740 mmHg 84%
    02:00 +10°C° 0 mm 2 m/S 740 mmHg 87%
    03:00 +10°C° 0 mm 2 m/S 740 mmHg 89%
    04:00 +9°C° 0 mm 2 m/S 740 mmHg 91%
    05:00 +9°C° 0 mm 2 m/S 740 mmHg 93%
    06:00 +9°C° 0 mm 3 m/S 741 mmHg 93%
    07:00 +9°C° 0 mm 3 m/S 741 mmHg 93%
    08:00 +9°C° 0 mm 3 m/S 741 mmHg 93%
    09:00 +10°C° 0 mm 3 m/S 742 mmHg 88%
    10:00 +11°C° 0 mm 3 m/S 742 mmHg 84%
    11:00 +12°C° 0 mm 3 m/S 742 mmHg 79%
    12:00 +12°C° 0 mm 3 m/S 742 mmHg 78%
    13:00 +12°C° 0 mm 3 m/S 742 mmHg 77%
    14:00 +13°C° 0 mm 3 m/S 742 mmHg 75%
    15:00 +12°C° 0 mm 3 m/S 742 mmHg 77%
    16:00 +12°C° 0 mm 3 m/S 742 mmHg 78%
    17:00 +11°C° 0 mm 3 m/S 742 mmHg 79%
    18:00 +11°C° 0 mm 3 m/S 742 mmHg 79%
    19:00 +10°C° 0 mm 3 m/S 743 mmHg 79%
    20:00 +10°C° 0 mm 3 m/S 743 mmHg 80%
    21:00 +9°C° 0 mm 3 m/S 743 mmHg 79%
    22:00 +9°C° 0 mm 2 m/S 743 mmHg 78%
    23:00 +9°C° 0 mm 2 m/S 743 mmHg 78%

    21 Oktober, Sonntag

    Zeit Temperatur Niederschläge Wind Luftdruck Luftfeuchtigkeit
    00:00 +8°C° 0 mm 2 m/S 743 mmHg 80%
    01:00 +7°C° 0 mm 2 m/S 742 mmHg 83%
    02:00 +6°C° 0 mm 2 m/S 742 mmHg 86%
    03:00 +6°C° 0 mm 2 m/S 742 mmHg 87%
    04:00 +4°C° 0 mm 3 m/S 742 mmHg 87%
    05:00 +3°C° 0 mm 3 m/S 742 mmHg 88%
    06:00 +4°C° 0 mm 3 m/S 742 mmHg 86%
    07:00 +4°C° 0 mm 3 m/S 743 mmHg 85%
    08:00 +4°C° 0 mm 3 m/S 743 mmHg 83%
    09:00 +5°C° 0 mm 3 m/S 743 mmHg 76%
    10:00 +8°C° 0 mm 3 m/S 743 mmHg 70%
    11:00 +8°C° 0 mm 4 m/S 743 mmHg 63%
    12:00 +10°C° 0 mm 4 m/S 743 mmHg 61%
    13:00 +10°C° 0 mm 3 m/S 742 mmHg 59%
    14:00 +10°C° 0 mm 3 m/S 742 mmHg 57%
    15:00 +10°C° 0 mm 3 m/S 742 mmHg 58%
    16:00 +9°C° 0 mm 3 m/S 742 mmHg 60%
    17:00 +9°C° 0 mm 2 m/S 742 mmHg 62%
    18:00 +8°C° 0 mm 2 m/S 743 mmHg 65%
    19:00 +7°C° 0 mm 2 m/S 743 mmHg 68%
    20:00 +6°C° 0 mm 2 m/S 743 mmHg 71%
    21:00 +6°C° 0 mm 2 m/S 743 mmHg 74%
    22:00 +5°C° 0 mm 2 m/S 743 mmHg 76%
    23:00 +5°C° 0 mm 2 m/S 744 mmHg 78%

    22 Oktober, Montag

    Zeit Temperatur Niederschläge Wind Luftdruck Luftfeuchtigkeit
    00:00 +4°C° 0 mm 2 m/S 744 mmHg 79%
    01:00 +5°C° 0 mm 1 m/S 744 mmHg 80%
    02:00 +4°C° 0 mm 1 m/S 744 mmHg 82%
    03:00 +4°C° 0 mm 1 m/S 744 mmHg 83%
    04:00 +4°C° 0 mm 1 m/S 744 mmHg 84%
    05:00 +4°C° 0 mm 1 m/S 744 mmHg 85%
    06:00 +4°C° 0 mm 1 m/S 744 mmHg 83%
    07:00 +4°C° 0 mm 1 m/S 744 mmHg 82%
    08:00 +4°C° 0 mm 2 m/S 744 mmHg 81%
    09:00 +5°C° 0 mm 2 m/S 744 mmHg 73%
    10:00 +7°C° 0 mm 2 m/S 744 mmHg 65%
    11:00 +9°C° 0 mm 2 m/S 744 mmHg 58%
    12:00 +9°C° 0 mm 2 m/S 744 mmHg 54%
    13:00 +10°C° 0 mm 2 m/S 743 mmHg 50%
    14:00 +12°C° 0 mm 2 m/S 743 mmHg 47%
    15:00 +10°C° 0 mm 2 m/S 743 mmHg 50%
    16:00 +10°C° 0 mm 1 m/S 742 mmHg 54%
    17:00 +9°C° 0 mm 1 m/S 742 mmHg 58%
    18:00 +8°C° 0 mm 1 m/S 742 mmHg 60%
    19:00 +7°C° 0 mm 1 m/S 742 mmHg 62%
    20:00 +5°C° 0 mm 2 m/S 742 mmHg 65%
    21:00 +6°C° 0 mm 1 m/S 742 mmHg 66%
    22:00 +5°C° 0 mm 1 m/S 742 mmHg 68%
    23:00 +5°C° 0 mm 1 m/S 741 mmHg 70%
    Mehr zeigen